| time (UTC) | temp C | wind direction | speed KPH | gust KPH | rain 1hr cm | rain 24hr cm | rain mn cm | humidity % | barometer mb |
| 20260510115455 | 6 | 269 | 14.5 | 40.2 | 0.00 | 0.13 | 0.48 | 76 | 1010.6 |
| 20260510113655 | 6 | 233 | 20.9 | 30.6 | 0.00 | 0.13 | 0.48 | 79 | 1010.5 |
| 20260510111855 | 6 | 265 | 17.7 | 37.0 | 0.00 | 0.13 | 0.48 | 80 | 1010.0 |
| 20260510110955 | 6 | 260 | 12.9 | 29.0 | 0.00 | 0.13 | 0.48 | 78 | 1010.2 |
| 20260510110054 | 6 | 277 | 17.7 | 40.2 | 0.00 | 0.13 | 0.48 | 77 | 1010.0 |
| 20260510105155 | 6 | 251 | 20.9 | 43.5 | 0.00 | 0.13 | 0.48 | 77 | 1009.6 |
| 20260510104255 | 6 | 263 | 19.3 | 41.8 | 0.00 | 0.13 | 0.48 | 78 | 1009.4 |
| 20260510103355 | 6 | 268 | 16.1 | 33.8 | 0.00 | 0.13 | 0.48 | 78 | 1009.4 |
| 20260510102455 | 6 | 263 | 9.7 | 29.0 | 0.00 | 0.13 | 0.48 | 78 | 1009.5 |
| 20260510101555 | 6 | 245 | 16.1 | 41.8 | 0.00 | 0.13 | 0.48 | 77 | 1009.5 |
| 20260510100655 | 6 | 232 | 14.5 | 38.6 | 0.00 | 0.13 | 0.48 | 77 | 1009.0 |
| 20260510095754 | 6 | 241 | 17.7 | 35.4 | 0.00 | 0.13 | 0.48 | 78 | 1008.4 |
| 20260510093954 | 6 | 293 | 12.9 | 27.4 | 0.00 | 0.13 | 0.48 | 78 | 1008.2 |
| 20260510093054 | 6 | 245 | 16.1 | 33.8 | 0.00 | 0.13 | 0.48 | 77 | 1007.9 |
| 20260510091255 | 6 | 246 | 14.5 | 40.2 | 0.00 | 0.13 | 0.48 | 78 | 1008.1 |
| 20260510090354 | 6 | 223 | 11.3 | 32.2 | 0.00 | 0.13 | 0.48 | 78 | 1008.0 |
| 20260510085454 | 6 | 235 | 14.5 | 43.5 | 0.00 | 0.13 | 0.48 | 80 | 1007.3 |
| 20260510083654 | 6 | 280 | 17.7 | 53.1 | 0.00 | 0.13 | 0.48 | 79 | 1006.6 |
| 20260510081855 | 6 | 249 | 20.9 | 54.7 | 0.00 | 0.13 | 0.48 | 78 | 1006.0 |
| 20260510080954 | 6 | 241 | 25.7 | 54.7 | 0.00 | 0.13 | 0.48 | 78 | 1005.9 |
| 20260510080054 | 6 | 248 | 20.9 | 43.5 | 0.00 | 0.13 | 0.48 | 79 | 1005.6 |
| 20260510075155 | 6 | 271 | 24.1 | 43.5 | 0.00 | 0.13 | 0.48 | 79 | 1005.5 |
| 20260510074254 | 6 | 241 | 27.4 | 43.5 | 0.00 | 0.13 | 0.48 | 80 | 1005.4 |
| 20260510073354 | 6 | 259 | 22.5 | 37.0 | 0.00 | 0.13 | 0.48 | 80 | 1005.8 |
| 20260510072454 | 6 | 272 | 20.9 | 57.9 | 0.00 | 0.13 | 0.48 | 77 | 1006.0 |
| 20260510070654 | 6 | 286 | 19.3 | 43.5 | 0.00 | 0.13 | 0.48 | 82 | 1005.5 |
| 20260510065754 | 6 | 253 | 16.1 | 38.6 | 0.00 | 0.13 | 0.48 | 82 | 1005.1 |
| 20260510063054 | 6 | 249 | 9.7 | 35.4 | 0.00 | 0.13 | 0.48 | 83 | 1004.7 |
| 20260510062154 | 6 | 290 | 20.9 | 35.4 | 0.00 | 0.13 | 0.48 | 83 | 1004.5 |
| 20260510061254 | 6 | 278 | 20.9 | 35.4 | 0.00 | 0.13 | 0.48 | 83 | 1004.0 |
| 20260510053654 | 6 | 257 | 19.3 | 33.8 | 0.00 | 0.13 | 0.48 | 84 | 1003.5 |
| 20260510052754 | 6 | 285 | 11.3 | 33.8 | 0.00 | 0.13 | 0.48 | 84 | 1003.5 |
| 20260510051854 | 6 | 257 | 12.9 | 37.0 | 0.00 | 0.13 | 0.48 | 85 | 1003.2 |
| 20260510045154 | 6 | 277 | 16.1 | 33.8 | 0.00 | 0.13 | 0.48 | 89 | 1002.5 |
| 20260510044254 | 6 | 256 | 12.9 | 37.0 | 0.00 | 0.13 | 0.48 | 87 | 1002.5 |
| 20260510043354 | 6 | 245 | 22.5 | 35.4 | 0.00 | 0.13 | 0.48 | 82 | 1002.5 |
| 20260510042454 | 7 | 287 | 17.7 | 37.0 | 0.00 | 0.13 | 0.46 | 75 | 1002.1 |
| 20260510041554 | 7 | 263 | 12.9 | 32.2 | 0.08 | 0.13 | 0.46 | 73 | 1001.8 |
| 20260510040654 | 7 | 233 | 17.7 | 37.0 | 0.08 | 0.13 | 0.46 | 73 | 1001.5 |
| 20260510035754 | 7 | 258 | 17.7 | 37.0 | 0.08 | 0.13 | 0.46 | 73 | 1001.6 |
| 20260510034854 | 7 | 282 | 22.5 | 43.5 | 0.08 | 0.13 | 0.46 | 73 | 1001.3 |
| 20260510033954 | 7 | 259 | 9.7 | 41.8 | 0.08 | 0.13 | 0.46 | 74 | 1001.0 |
| 20260510033054 | 7 | 286 | 24.1 | 64.4 | 0.08 | 0.13 | 0.46 | 73 | 1000.9 |
| 20260510032154 | 7 | 244 | 32.2 | 41.8 | 0.00 | 0.05 | 0.41 | 76 | 1000.5 |
| 20260510031254 | 7 | 235 | 16.1 | 33.8 | 0.00 | 0.05 | 0.41 | 76 | 1000.6 |
| 20260510030354 | 7 | 255 | 24.1 | 35.4 | 0.00 | 0.05 | 0.41 | 77 | 1000.8 |
| 20260510024554 | 7 | 241 | 16.1 | 38.6 | 0.00 | 0.05 | 0.41 | 81 | 1000.2 |
| 20260510023654 | 7 | 265 | 12.9 | 33.8 | 0.00 | 0.05 | 0.41 | 83 | 1000.2 |
| 20260510022754 | 8 | 288 | 22.5 | 33.8 | 0.00 | 0.05 | 0.41 | 84 | 999.9 |
| 20260510021854 | 8 | 219 | 12.9 | 29.0 | 0.00 | 0.05 | 0.41 | 88 | 1000.0 |
| 20260510020953 | 7 | 241 | 17.7 | 30.6 | 0.00 | 0.05 | 0.41 | 92 | 999.7 |
| 20260510015154 | 7 | 269 | 22.5 | 54.7 | 0.00 | 0.05 | 0.41 | 82 | 999.4 |
| 20260510014253 | 8 | 269 | 20.9 | 54.7 | 0.00 | 0.05 | 0.41 | 79 | 999.2 |
| 20260510013354 | 8 | 240 | 25.7 | 38.6 | 0.00 | 0.05 | 0.41 | 85 | 999.1 |
| 20260510012454 | 7 | 236 | 9.7 | 43.5 | 0.00 | 0.05 | 0.41 | 81 | 999.0 |
| 20260510010653 | 8 | 262 | 24.1 | 37.0 | 0.00 | 0.05 | 0.41 | 74 | 998.6 |
| 20260510005753 | 8 | 260 | 16.1 | 49.9 | 0.00 | 0.05 | 0.41 | 74 | 999.0 |
| 20260510004853 | 8 | 271 | 24.1 | 33.8 | 0.00 | 0.05 | 0.41 | 76 | 998.7 |
| 20260510003954 | 8 | 240 | 14.5 | 37.0 | 0.00 | 0.05 | 0.41 | 78 | 999.0 |
| 20260510002154 | 8 | 254 | 11.3 | 30.6 | 0.00 | 0.05 | 0.41 | 81 | 998.7 |
| 20260510001253 | 8 | 245 | 12.9 | 45.1 | 0.00 | 0.05 | 0.41 | 83 | 998.6 |
| 20260509235453 | 8 | 228 | 16.1 | 37.0 | 0.00 | 0.05 | 0.41 | 82 | 998.1 |
| 20260509233654 | 8 | 212 | 14.5 | 33.8 | 0.00 | 0.05 | 0.41 | 81 | 997.8 |
| 20260509232753 | 8 | 232 | 14.5 | 38.6 | 0.00 | 0.05 | 0.41 | 79 | 998.0 |
| 20260509231853 | 8 | 233 | 25.7 | 33.8 | 0.00 | 0.05 | 0.41 | 78 | 998.1 |
| 20260509230953 | 8 | 247 | 17.7 | 41.8 | 0.00 | 0.05 | 0.41 | 75 | 997.8 |
| 20260509230053 | 8 | 243 | 22.5 | 40.2 | 0.00 | 0.05 | 0.41 | 75 | 997.5 |
| 20260509225153 | 8 | 258 | 16.1 | 32.2 | 0.00 | 0.05 | 0.41 | 73 | 997.4 |
| 20260509224253 | 8 | 234 | 9.7 | 32.2 | 0.00 | 0.05 | 0.41 | 72 | 997.3 |
| 20260509223353 | 8 | 240 | 9.7 | 38.6 | 0.00 | 0.05 | 0.41 | 71 | 996.9 |
| 20260509222453 | 8 | 270 | 17.7 | 33.8 | 0.00 | 0.05 | 0.41 | 71 | 996.9 |
| 20260509221553 | 8 | 213 | 12.9 | 33.8 | 0.00 | 0.05 | 0.41 | 75 | 996.6 |
| 20260509220653 | 8 | 241 | 16.1 | 43.5 | 0.00 | 0.05 | 0.41 | 74 | 996.3 |
| 20260509215753 | 8 | 270 | 19.3 | 43.5 | 0.00 | 0.05 | 0.41 | 76 | 996.4 |
| 20260509214853 | 8 | 260 | 17.7 | 33.8 | 0.03 | 0.05 | 0.41 | 77 | 996.4 |
| 20260509213953 | 8 | 235 | 19.3 | 37.0 | 0.05 | 0.05 | 0.41 | 77 | 996.6 |
| 20260509213053 | 8 | 258 | 17.7 | 53.1 | 0.05 | 0.05 | 0.41 | 76 | 996.5 |
| 20260509212153 | 8 | 295 | 24.1 | 45.1 | 0.05 | 0.05 | 0.41 | 78 | 996.3 |
| 20260509211253 | 8 | 272 | 17.7 | 43.5 | 0.05 | 0.05 | 0.41 | 79 | 995.6 |
| 20260509210353 | 8 | 252 | 20.9 | 54.7 | 0.05 | 0.05 | 0.41 | 79 | 995.7 |
| 20260509204554 | 8 | 278 | 24.1 | 45.1 | 0.00 | 0.00 | 0.36 | 84 | 995.3 |
| 20260509202753 | 8 | 231 | 27.4 | 40.2 | 0.00 | 0.00 | 0.36 | 83 | 995.2 |
| 20260509201853 | 8 | 290 | 20.9 | 45.1 | 0.00 | 0.00 | 0.36 | 82 | 994.7 |
| 20260509200953 | 8 | 239 | 19.3 | 45.1 | 0.00 | 0.00 | 0.36 | 85 | 994.3 |
| 20260509200053 | 8 | 248 | 24.1 | 45.1 | 0.00 | 0.00 | 0.36 | 85 | 994.3 |
| 20260509195153 | 8 | 272 | 24.1 | 54.7 | 0.00 | 0.00 | 0.00 | 84 | 994.1 |
| 20260509194254 | 8 | 244 | 20.9 | 43.5 | 0.00 | 0.00 | 0.00 | 84 | 993.8 |
| 20260509193353 | 8 | 228 | 24.1 | 37.0 | 0.00 | 0.00 | 0.00 | 84 | 993.7 |
| 20260509192453 | 8 | 261 | 17.7 | 40.2 | 0.00 | 0.00 | 0.00 | 83 | 993.3 |
| 20260509185753 | 8 | 282 | 19.3 | 43.5 | 0.00 | 0.00 | 0.00 | 87 | 993.0 |
| 20260509184853 | 8 | 271 | 12.9 | 49.9 | 0.00 | 0.00 | 0.00 | 90 | 993.0 |
| 20260509183953 | 8 | 250 | 27.4 | 43.5 | 0.00 | 0.00 | 0.00 | 93 | 992.6 |
| 20260509183053 | 8 | 279 | 22.5 | 41.8 | 0.00 | 0.00 | 0.00 | 95 | 992.6 |
| 20260509180353 | 8 | 281 | 17.7 | 43.5 | 0.00 | 0.00 | 0.00 | 91 | 992.4 |
| 20260509175453 | 8 | 257 | 20.9 | 38.6 | 0.00 | 0.00 | 0.00 | 90 | 991.9 |
| 20260509174552 | 8 | 241 | 17.7 | 38.6 | 0.00 | 0.00 | 0.00 | 90 | 991.8 |
| 20260509173653 | 9 | 268 | 27.4 | 43.5 | 0.00 | 0.00 | 0.00 | 90 | 991.4 |
| 20260509172753 | 9 | 244 | 14.5 | 32.2 | 0.00 | 0.00 | 0.00 | 90 | 991.5 |
| 20260509171853 | 10 | 220 | 19.3 | 30.6 | 0.00 | 0.00 | 0.00 | 88 | 991.5 |
| 20260509170952 | 10 | 273 | 20.9 | 33.8 | 0.00 | 0.00 | 0.00 | 88 | 991.1 |
| 20260509170053 | 10 | 229 | 17.7 | 38.6 | 0.00 | 0.00 | 0.00 | 88 | 991.1 |
| 20260509165152 | 10 | 186 | 17.7 | 43.5 | 0.00 | 0.00 | 0.00 | 89 | 990.9 |
| 20260509164253 | 10 | 306 | 19.3 | 64.4 | 0.00 | 0.00 | 0.00 | 88 | 991.1 |
| 20260509163353 | 10 | 242 | 14.5 | 32.2 | 0.00 | 0.00 | 0.00 | 91 | 991.0 |
| 20260509161611 | 10 | 267 | 9.7 | 40.2 | 0.00 | 0.00 | 0.00 | 92 | 990.7 |
| 20260509160652 | 10 | 267 | 12.9 | 29.0 | 0.00 | 0.00 | 0.00 | 91 | 991.4 |
| 20260509155752 | 10 | 240 | 14.5 | 27.4 | 0.00 | 0.00 | 0.00 | 87 | 991.1 |
| 20260509154852 | 10 | 232 | 16.1 | 25.7 | 0.00 | 0.00 | 0.00 | 86 | 991.1 |
| 20260509153953 | 10 | 225 | 11.3 | 27.4 | 0.00 | 0.00 | 0.00 | 84 | 990.7 |
| 20260509153053 | 11 | 213 | 14.5 | 25.7 | 0.00 | 0.00 | 0.00 | 79 | 990.3 |
| 20260509152153 | 12 | 202 | 14.5 | 24.1 | 0.00 | 0.00 | 0.00 | 71 | 990.0 |
| 20260509151252 | 12 | 244 | 9.7 | 16.1 | 0.00 | 0.00 | 0.00 | 69 | 989.8 |
| 20260509145452 | 12 | 224 | 6.4 | 20.9 | 0.00 | 0.00 | 0.00 | 67 | 989.5 |
| 20260509144552 | 12 | 302 | 4.8 | 16.1 | 0.00 | 0.00 | 0.00 | 69 | 989.7 |
| 20260509143652 | 12 | 283 | 8.0 | 20.9 | 0.00 | 0.00 | 0.00 | 68 | 989.7 |
| 20260509142753 | 12 | 263 | 12.9 | 27.4 | 0.00 | 0.00 | 0.00 | 68 | 989.5 |
| 20260509141852 | 12 | 305 | 11.3 | 27.4 | 0.00 | 0.00 | 0.00 | 69 | 989.5 |
| 20260509140952 | 12 | 322 | 8.0 | 24.1 | 0.00 | 0.00 | 0.00 | 68 | 989.6 |
| 20260509135152 | 12 | 287 | 11.3 | 33.8 | 0.00 | 0.00 | 0.00 | 69 | 989.6 |
| 20260509134252 | 11 | 286 | 11.3 | 24.1 | 0.00 | 0.00 | 0.00 | 74 | 989.3 |
| 20260509133352 | 11 | 283 | 8.0 | 24.1 | 0.00 | 0.00 | 0.00 | 82 | 989.8 |
| 20260509132453 | 10 | 264 | 16.1 | 24.1 | 0.00 | 0.00 | 0.00 | 84 | 990.1 |
| 20260509131552 | 10 | 264 | 14.5 | 24.1 | 0.00 | 0.00 | 0.00 | 84 | 990.2 |
| 20260509130652 | 10 | 262 | 9.7 | 33.8 | 0.00 | 0.00 | 0.00 | 84 | 990.4 |
| 20260509125752 | 10 | 274 | 17.7 | 33.8 | 0.00 | 0.00 | 0.00 | 85 | 990.4 |
| 20260509124852 | 10 | 229 | 14.5 | 32.2 | 0.00 | 0.00 | 0.00 | 85 | 990.6 |
| 20260509123952 | 10 | 256 | 14.5 | 33.8 | 0.00 | 0.00 | 0.00 | 85 | 990.8 |
| 20260509123052 | 10 | 234 | 14.5 | 30.6 | 0.00 | 0.00 | 0.00 | 84 | 990.7 |
| 20260509122152 | 10 | 238 | 22.5 | 40.2 | 0.00 | 0.00 | 0.00 | 84 | 990.8 |
| 20260509121252 | 10 | 225 | 14.5 | 40.2 | 0.00 | 0.00 | 0.00 | 84 | 990.6 |
| 20260509120352 | 10 | 242 | 12.9 | 30.6 | 0.00 | 0.00 | 0.00 | 84 | 990.6 |